Vertical_Velocity
3 3 5 5 4 3 2 2 2 2 1 2 3 3 3 3 4 4 3 1 -1 -2 -3 -2 -1 0 1 2 3 3 3 3 3 3 2 2 1 1 -0 -1 -1 -2 -2 -2 -2 -1 -1 -0 0 0 1 1 1 1 1 1 0 -0 -0 -0 -1 -1 -0 -1 -0 -0 -0 -0 -0 -0 -1 -1 -1 -1 -1 -2 -2 -2 -1 -1 -1 -2 -3 -3 -3 -4
2 2 3 3 3 2 1 1 1 2 2 3 4 5 5 6 5 4 2 0 -1 -2 -1 -1 -0 0 1 2 2 3 3 3 3 3 3 2 1 0 -0 -1 -2 -2 -2 -2 -2 -1 -1 -0 -0 0 1 1 1 1 1 1 0 -0 -0 -0 -0 -0 -1 -1 -1 -1 -1 -1 -1 -0 -1 -1 -1 -2 -2 -2 -1 -1 -1 -1 -2 -3 -4 -3 -3 -3
-0 0 -0 1 1 1 1 1 2 4 5 6 6 6 5 4 3 2 1 0 -0 -0 -0 -0 0 0 1 2 2 2 3 3 4 3 3 2 1 -0 -1 -2 -2 -2 -2 -1 -1 -1 -0 -0 0 0 1 1 0 0 0 0 0 0 0 -0 -0 -1 -1 -1 -2 -2 -3 -2 -2 -2 -2 -1 -1 -2 -2 -1 -1 -1 -1 -2 -2 -2 -2 -2 -2 -2
1 0 -1 -0 0 1 2 3 5 6 6 6 5 4 3 2 1 1 1 1 1 1 1 0 0 0 0 1 2 3 3 4 4 3 2 1 -0 -1 -2 -2 -2 -1 -1 -1 -0 0 0 1 1 1 1 1 1 0 0 0 -0 -0 -0 -1 -1 -1 -2 -2 -2 -2 -3 -3 -3 -3 -2 -2 -2 -2 -1 -1 -2 -1 -1 -1 -1 -1 -1 -0 -1 -2
1 1 -0 1 1 2 3 4 4 4 4 3 3 2 1 1 1 1 1 1 1 1 0 -1 -1 -1 -0 1 2 3 3 3 3 2 1 -0 -1 -2 -2 -2 -1 -1 -0 -0 0 1 1 1 1 1 1 1 0 0 -0 -0 -1 -1 -2 -2 -2 -2 -2 -2 -3 -3 -3 -3 -3 -3 -3 -2 -2 -2 -1 -1 -1 -1 -1 -1 -1 -1 -0 0 0 0
2 2 1 1 2 2 2 2 1 1 1 1 1 1 0 0 0 1 1 1 0 -0 -1 -2 -2 -1 0 2 2 3 3 2 2 1 -1 -2 -2 -2 -1 -1 -1 -0 0 0 1 1 1 1 1 1 0 -0 -0 -1 -1 -1 -1 -2 -2 -1 -1 -2 -2 -2 -2 -2 -2 -2 -3 -3 -2 -2 -2 -1 -1 -1 -1 -1 -1 -2 -1 -1 -0 -0 0 1
2 2 1 0 0 -0 -0 -1 -1 -1 -0 -0 0 0 -0 -1 -0 -0 0 0 -0 -1 -2 -1 -0 1 2 2 2 2 1 1 -0 -1 -2 -2 -2 -1 -1 -0 0 0 1 1 1 1 1 1 1 0 -0 -1 -1 -1 -1 -1 -1 -1 -1 -1 -1 -1 -1 -2 -2 -2 -2 -2 -2 -2 -2 -1 -1 -1 -1 -1 -1 -1 -0 -1 -1 -1 -1 -1 -1 0
2 1 0 -0 -1 -1 -1 -0 0 1 1 0 -0 -1 -1 -1 -1 -1 -0 0 -0 -0 -0 0 1 2 2 2 1 0 -0 -1 -2 -2 -3 -2 -1 -1 -0 0 1 1 1 1 1 1 1 1 0 0 -0 -0 -0 -0 -1 -1 -1 -2 -2 -2 -2 -2 -2 -2 -1 -1 -2 -2 -1 -1 -1 -1 -1 -1 -2 -2 -1 -1 -1 -0 -0 -1 -1 -1 -1 -0
2 2 2 1 1 1 1 1 1 1 1 -0 -1 -2 -2 -1 -0 0 1 1 1 1 0 1 2 2 3 1 0 -1 -1 -2 -2 -2 -2 -2 -1 -0 0 0 0 0 0 1 1 1 1 1 1 0 0 -0 -0 -1 -1 -1 -2 -2 -2 -2 -2 -2 -1 -1 -1 -1 -1 -1 -1 -1 -1 -2 -2 -2 -2 -2 -2 -2 -2 -1 -1 -1 -1 -1 -1 -1
1 1 2 2 1 1 1 1 1 1 -0 -1 -1 -1 -0 0 1 2 2 2 2 1 0 1 1 2 2 1 -0 -1 -1 -2 -2 -1 -1 -1 -1 -0 -0 -1 -0 -0 0 0 0 0 0 0 0 0 0 -0 -0 -0 -1 -1 -1 -1 -1 -1 -1 -0 -0 -0 -0 -1 -1 -1 -1 -2 -2 -2 -2 -2 -2 -2 -2 -2 -2 -2 -2 -2 -2 -2 -1 -1
-1 -0 0 0 0 0 0 1 1 1 0 -0 -0 0 0 1 1 2 2 2 2 1 0 -0 -1 -0 -0 -1 -1 -1 -1 -2 -1 -1 0 0 -0 -1 -1 -1 -1 -0 0 0 0 0 0 0 0 1 1 1 0 0 -0 -0 -0 -0 -0 -0 -0 -0 -0 -1 -1 -1 -2 -2 -2 -2 -2 -2 -2 -2 -2 -2 -2 -2 -1 -1 -1 -1 -2 -1 -1 -1
-2 -1 -1 -0 0 0 1 2 2 2 1 1 1 1 1 1 1 1 1 1 1 0 -1 -2 -3 -3 -3 -2 -1 -1 -1 -2 -2 -1 1 1 1 -0 -1 -1 -0 1 1 1 1 1 1 1 1 1 1 1 0 0 0 -0 -0 -0 -0 -1 -1 -1 -2 -2 -2 -2 -2 -2 -2 -2 -2 -2 -2 -2 -1 -1 -1 -1 -1 -1 -1 -1 -1 -1 -1 -0
-2 -2 -1 0 1 2 2 3 3 2 2 1 -0 -0 0 1 -0 -1 -1 0 -0 -1 -2 -2 -2 -3 -2 -2 -1 -1 -2 -2 -2 -0 1 2 2 1 0 1 2 2 2 2 2 2 3 2 1 1 1 1 0 0 -0 -0 -1 -1 -1 -2 -2 -2 -2 -2 -3 -3 -2 -2 -2 -2 -2 -1 -1 -1 -0 -0 -0 -0 -0 -0 -0 -0 -1 -1 -1 -1
-2 -1 -0 1 2 2 3 2 2 2 1 0 -0 -0 0 -0 -1 -2 -2 -1 -2 -2 -2 -1 -0 0 0 0 0 -0 -2 -2 -1 0 2 2 2 1 1 1 2 2 2 1 2 3 3 2 1 1 1 1 0 -0 -0 -1 -1 -1 -2 -2 -2 -2 -2 -2 -2 -2 -2 -1 -1 -1 -0 -1 -1 -0 -0 -0 -0 -1 -1 -1 -1 -1 -2 -2 -2 -2
-1 0 1 2 3 3 2 2 1 1 1 1 0 -1 -1 -1 -1 -1 -1 -0 -1 -1 -1 0 1 2 3 2 2 1 -2 -2 -1 0 2 3 3 2 1 0 1 2 2 1 2 3 3 2 1 1 1 0 -0 -1 -1 -1 -2 -2 -2 -2 -2 -2 -2 -1 -1 -1 -1 -0 -0 -0 -1 -1 -1 -1 -1 -1 -1 -2 -2 -2 -2 -2 -2 -2 -3 -2
1 2 3 3 3 3 2 1 0 0 1 0 -0 -0 0 1 0 -0 -0 0 0 -0 0 1 1 2 3 4 4 3 -0 -1 -1 0 1 2 3 3 1 -1 -0 1 3 2 2 2 2 1 1 -0 -0 -0 -1 -1 -1 -1 -1 -1 -1 -1 -1 -1 -0 -0 -0 -0 -0 -0 -0 -1 -1 -1 -1 -2 -2 -2 -2 -2 -2 -2 -2 -2 -2 -2 -2 -2
3 3 3 3 3 2 2 0 -0 -0 -0 0 0 1 1 1 1 1 1 0 0 0 -0 -0 0 0 -1 1 4 5 0 -1 -1 -0 0 1 2 3 1 -0 -1 0 3 3 3 2 1 1 0 -0 -1 -1 -1 -1 -1 -1 -1 -0 -0 -0 0 0 1 1 0 0 -0 -1 -1 -1 -1 -1 -2 -2 -2 -2 -2 -2 -2 -2 -1 -1 -2 -2 -2 -2
3 3 3 2 2 1 1 1 0 0 0 1 1 1 1 1 1 0 1 1 1 1 -0 -1 -0 -0 -1 -3 1 5 -0 -1 -2 -2 -2 -1 2 4 3 1 -0 0 2 3 2 1 -0 -0 -1 -1 -1 -1 -1 -0 -0 0 0 1 1 1 1 1 1 0 0 -0 -1 -1 -2 -2 -2 -2 -2 -2 -2 -2 -2 -2 -2 -2 -2 -2 -2 -2 -2 -2
3 2 2 1 1 1 1 1 0 0 1 1 1 1 2 1 0 0 1 0 0 0 0 -0 -1 -1 -0 -2 0 2 -1 -2 -3 -3 -3 -2 1 4 4 1 -0 -0 1 1 1 1 -1 -1 -1 -0 -0 -0 0 1 1 1 2 2 1 1 1 1 0 -0 -0 -1 -1 -2 -2 -2 -2 -2 -2 -2 -2 -2 -2 -1 -2 -2 -1 -1 -1 -1 -1 -2
2 2 1 0 0 0 1 0 0 -0 -0 -0 0 1 2 1 1 1 0 -0 -0 -0 -1 -0 -1 -2 -1 -1 -0 -0 -0 -2 -3 -3 -4 -3 1 3 3 -0 -2 -2 -1 1 1 0 -1 -0 0 1 1 1 1 1 2 2 2 1 1 1 0 -0 -0 -0 -1 -1 -1 -1 -1 -1 -1 -1 -1 -1 -1 -1 -1 -1 -1 -1 -1 -0 -0 -1 -1 -2
2 2 1 -0 0 1 1 1 0 -0 -1 -0 1 2 2 1 1 1 0 -0 -0 -1 -1 -0 -1 -1 -1 -1 -1 -0 1 -1 -2 -4 -5 -4 -1 2 2 -1 -3 -3 -2 0 1 0 -0 -0 1 1 1 1 1 2 2 1 1 0 -0 -0 -0 -0 -0 -0 -0 -0 -0 -0 -0 -0 -0 -0 -1 -1 -2 -2 -2 -2 -2 -2 -1 -1 -1 -1 -1 -1
2 2 1 0 0 1 2 1 1 0 -0 0 1 2 1 1 1 1 -0 -0 -1 -1 -1 -1 -1 -1 -1 -1 -0 1 1 -0 -1 -3 -4 -6 -4 -0 3 -1 -3 -3 -2 -0 1 1 0 0 1 1 1 1 1 1 0 0 -0 -0 -0 -0 -0 -0 0 0 0 0 -0 -0 -0 -0 -1 -1 -1 -1 -2 -2 -2 -2 -3 -2 -2 -2 -1 -1 -1 -2
2 2 1 1 0 1 1 2 2 1 0 1 1 2 1 2 2 1 -0 -1 -1 -1 -2 -2 -2 -2 -1 -1 -0 1 2 1 -1 -2 -3 -7 -6 -2 2 -1 -2 -2 -1 0 1 0 -0 0 1 1 1 1 0 0 -0 -1 -1 -1 -0 -0 0 0 0 0 0 0 -0 -1 -1 -1 -1 -1 -1 -1 -1 -1 -1 -1 -1 -1 -1 -1 -1 -1 -2 -2
1 1 2 1 1 1 1 2 2 1 1 1 1 1 1 2 2 1 0 -1 -1 -1 -2 -2 -3 -2 -1 0 1 2 4 2 -1 -3 -3 -5 -5 -2 1 -0 -2 -3 -2 0 0 -1 -2 -0 1 1 1 1 0 0 -0 -1 -0 -0 0 0 1 1 1 1 0 0 -0 -1 -1 -1 -1 -1 -1 -1 -1 -1 -0 -0 -0 -0 -0 -0 -0 -1 -1 -1
0 1 1 1 1 1 1 1 1 1 0 0 0 0 1 0 -0 -1 -2 -2 -2 -2 -2 -3 -3 -3 -1 1 1 2 4 1 -1 -2 -3 -4 -4 -2 2 1 -2 -4 -4 -1 -0 -1 -3 -2 0 2 2 1 0 -0 -0 -0 -0 0 0 1 1 1 1 0 0 -0 -0 -0 -1 -1 -0 -0 -0 -0 -0 -0 -0 -0 0 0 0 -0 -1 -1 -1 -2
-1 -0 0 0 0 0 0 0 0 0 0 -0 -0 -1 -1 -1 -2 -3 -3 -3 -2 -2 -2 -3 -4 -3 -2 -1 -1 -0 1 0 -1 -1 -2 -3 -4 -3 1 1 -1 -4 -6 -3 -1 -0 -2 -3 -1 2 2 1 0 -0 -0 -0 0 0 1 1 1 1 1 0 0 -0 -0 -0 -0 -0 -0 0 0 0 0 -0 -0 -0 0 0 0 -0 -1 -1 -2 -2
-1 -1 -0 -0 0 0 -0 -0 0 0 1 0 0 -0 -0 -2 -3 -3 -4 -3 -1 -0 -1 -2 -3 -3 -2 -2 -2 -2 -1 -1 -0 -1 -2 -2 -3 -4 -1 1 -1 -4 -6 -5 -2 -1 -1 -3 -2 0 1 1 0 -0 -0 -0 0 0 1 1 1 1 1 1 0 0 0 0 0 0 0 0 0 0 0 0 0 0 0 0 0 -0 -1 -2 -3 -4
-0 -0 0 1 1 1 1 1 0 0 0 0 1 1 1 -1 -1 -2 -3 -1 1 1 0 -1 -2 -2 -3 -3 -3 -2 -2 -0 0 -0 -2 -2 -3 -4 -2 -1 -1 -3 -5 -7 -5 -1 1 -1 -1 -1 -0 0 0 0 -0 -0 -0 0 0 0 1 1 1 1 1 1 1 1 1 0 0 0 0 0 1 0 0 0 0 1 1 0 -1 -2 -3 -4
1 1 1 1 1 1 1 0 0 0 0 0 1 1 0 -1 -1 -2 -2 0 2 2 0 0 -0 -1 -2 -3 -3 -3 -2 -0 0 -0 -2 -1 -2 -3 -2 -1 -2 -3 -5 -9 -9 -6 -0 1 0 -1 -1 -1 -0 -0 -0 -0 -0 0 0 1 1 1 1 1 1 1 1 1 1 0 0 0 0 0 0 0 0 0 0 1 1 -0 -1 -2 -3 -3
0 1 1 1 0 -0 -1 -1 -0 0 1 1 1 1 0 -1 -1 -1 -0 1 2 2 0 0 0 -0 -1 -1 -3 -4 -4 1 1 0 -2 -1 -2 -3 -2 -2 -2 -2 -3 -8 -12 -13 -8 -2 1 1 -1 -1 -1 -0 1 1 1 1 1 1 2 2 1 1 1 0 0 0 0 0 0 0 0 0 0 0 0 0 1 1 1 -0 -2 -2 -2 -2
-0 -1 -1 -0 -0 -1 -1 -1 -0 0 1 1 1 1 0 -0 0 1 1 2 1 1 0 -0 -0 -0 0 0 -1 -3 -6 1 3 2 -1 -1 -2 -3 -1 -2 -2 -1 0 -3 -8 -13 -15 -11 -3 2 1 -1 -1 -0 1 1 1 1 1 0 1 1 1 1 -0 -0 0 0 0 0 0 0 0 0 0 0 0 1 1 1 1 0 -1 -2 -2 -2
-1 -1 -1 -0 -0 0 0 0 0 1 1 1 1 1 1 1 1 1 2 1 1 0 -0 -1 -1 -0 1 1 -0 -2 -5 0 3 3 0 -1 -3 -3 -1 -1 -2 -2 1 1 -1 -5 -11 -16 -12 -4 1 0 -1 -1 0 1 1 0 -1 -1 -1 -0 1 1 -0 -1 -0 0 0 1 1 1 1 1 1 1 1 1 1 2 1 1 -0 -1 -2 -2
-0 -0 -0 0 1 1 2 1 1 1 1 2 2 2 2 2 1 1 1 1 1 0 -0 -0 -0 -0 0 0 -1 -2 -3 0 3 3 1 -0 -2 -3 -2 -1 -2 -2 -1 0 1 -0 -4 -12 -15 -13 -8 -4 -2 -1 -1 -0 0 -0 -1 -2 -2 -1 0 1 0 -0 -1 -0 0 1 1 1 1 1 1 1 1 1 1 2 2 2 1 -1 -2 -3
0 0 1 1 2 2 2 2 2 2 2 2 2 2 1 1 1 1 1 1 1 1 1 0 0 0 0 -1 -2 -3 -2 1 4 4 2 1 -1 -3 -3 -2 -1 -2 -2 -2 -1 -1 -2 -6 -9 -12 -16 -13 -6 -1 -0 -1 -1 -1 -0 -1 -2 -2 -2 -0 0 -0 -1 -0 -0 0 1 1 1 1 1 1 1 1 1 1 2 2 2 1 -1 -2
0 1 1 1 2 2 2 2 2 1 1 1 1 1 0 0 0 0 1 1 1 1 1 1 1 1 1 0 -2 -3 -3 2 4 4 2 1 -1 -2 -3 -2 -1 -0 -1 -2 -2 -1 -2 -4 -4 -6 -11 -17 -14 -7 0 0 -1 -2 -1 -1 -1 -2 -2 -1 -1 -1 -2 -1 -0 0 0 0 0 0 1 1 0 0 -0 0 1 1 2 2 2 1
-0 0 1 1 1 1 1 1 1 1 1 1 0 -0 -0 -0 -0 -0 0 0 1 1 1 1 1 1 1 1 -0 -2 -3 1 3 3 2 1 -0 -1 -3 -3 -1 0 -0 -2 -2 -1 -2 -4 -4 -3 -4 -11 -15 -13 -6 -1 -0 -1 -2 -1 -0 -1 -1 -0 -0 -1 -3 -2 -2 -1 -0 -0 -1 -1 -0 -0 -0 -0 -0 -0 0 1 1 2 3 3
-0 0 1 1 0 0 0 0 -0 -0 -0 -0 -0 -0 -1 -1 -1 -0 -0 0 0 0 0 0 0 0 0 0 -0 -1 -2 -0 1 2 3 2 1 -1 -2 -3 -1 1 1 -1 -1 -1 -1 -3 -4 -4 -3 -5 -9 -12 -13 -8 -5 -3 -2 -1 -1 -2 -2 0 0 -1 -3 -3 -3 -2 -1 -1 -1 -2 -1 -0 -0 -0 -0 1 1 1 1 1 2 2
-0 0 1 0 -0 -1 -1 -0 -1 -1 -1 -1 -1 -0 -0 -0 -0 0 0 0 0 -0 -0 -0 -0 0 0 -0 -0 -1 -1 -0 1 2 3 2 1 0 -1 -2 -2 0 2 1 0 -0 -0 -2 -3 -5 -6 -5 -5 -5 -8 -9 -9 -8 -6 -3 -2 -1 -2 -2 -2 -2 -3 -4 -3 -3 -1 -1 -1 -2 -2 -1 -1 -1 -1 -1 0 1 1 0 0 1
-0 -0 -0 -0 -1 -1 -2 -1 -1 -1 -1 -1 -1 -0 0 1 1 1 1 1 1 1 1 1 1 1 2 2 1 1 1 1 2 2 2 2 1 1 -0 -2 -2 -1 1 1 1 1 0 -0 -2 -3 -5 -7 -7 -6 -4 -4 -6 -8 -9 -8 -6 -3 -0 -1 -2 -3 -3 -3 -3 -3 -2 -1 -1 -1 -2 -2 -2 -2 -3 -3 -2 -1 -1 -2 -3 -3
-1 -1 -0 -0 -1 -1 -1 -1 -1 -1 -1 -1 -0 0 1 1 1 1 1 1 1 1 2 2 1 1 1 1 1 1 1 1 1 1 1 1 1 1 0 -1 -1 -1 0 1 1 1 1 -0 -1 -2 -1 -3 -6 -8 -8 -5 -4 -4 -6 -10 -11 -9 -2 -1 -1 -2 -2 -2 -3 -4 -4 -3 -2 -2 -2 -2 -2 -2 -3 -4 -3 -2 -1 -2 -4 -6
-1 -1 -0 -0 -1 -1 -1 -1 -1 -1 -0 -0 0 0 1 0 -0 -0 -0 -0 0 0 -0 -1 -1 -1 -1 -1 -0 -0 -0 0 0 0 0 0 1 1 0 -0 -0 -0 -0 -0 0 1 1 0 -1 -2 -2 -2 -3 -5 -7 -6 -4 -2 -2 -6 -9 -9 -5 -2 -2 -2 -4 -3 -3 -2 -3 -4 -3 -3 -2 -2 -2 -1 -1 -2 -3 -3 -2 -1 -1 -3
-1 -1 -0 -0 -0 -0 -0 -0 -0 0 0 0 0 0 0 -0 -1 -2 -2 -2 -1 -1 -1 -2 -2 -3 -3 -1 0 1 1 1 0 0 0 1 1 1 0 0 0 0 0 -1 -1 -0 1 0 -1 -2 -2 -1 -2 -4 -8 -7 -4 -0 0 -3 -7 -10 -10 -6 -0 2 -1 -4 -3 -2 -1 -3 -3 -3 -3 -3 -2 -2 -0 -0 -1 -2 -2 -2 -2 -1
-0 -1 -1 -0 -0 -0 0 0 0 0 1 1 0 0 -0 -1 -1 -2 -2 -2 -2 -2 -1 -2 -2 -3 -4 -3 -1 1 2 1 1 0 1 1 1 1 1 1 1 1 0 -1 -2 -2 -1 -0 -1 -2 -2 -1 -1 -3 -7 -9 -6 -3 -0 -0 -1 -4 -12 -12 -6 2 3 -0 -2 -1 -1 -2 -2 -3 -3 -3 -3 -3 -2 -2 -2 -2 -2 -2 -2 -3
-1 -1 -1 -1 -0 -0 -0 -0 -0 -0 -0 -1 -1 -1 -1 -1 -2 -2 -2 -2 -2 -1 -1 -1 -2 -2 -3 -3 -3 -1 0 1 1 1 1 1 1 0 0 1 1 1 0 -1 -2 -2 -2 -2 -2 -1 -0 -0 -1 -3 -6 -7 -7 -5 -3 0 2 1 -5 -9 -8 -4 -3 -2 -1 -0 0 -0 -2 -3 -4 -3 -3 -3 -3 -4 -4 -4 -3 -2 -2 -3
-1 -1 -1 -1 -0 -0 -1 -0 -0 -0 -1 -1 -1 -1 -1 -1 -1 -1 -2 -2 -1 -1 -0 -1 -2 -3 -4 -3 -3 -2 -2 -1 0 1 1 1 1 1 0 0 1 1 1 -0 -1 -1 -2 -3 -3 -2 1 1 0 -2 -4 -5 -6 -6 -4 -0 1 0 -4 -4 -3 -3 -4 -5 -3 -2 1 1 -1 -3 -6 -6 -5 -4 -4 -4 -5 -5 -5 -3 -2 -2
-0 -0 -0 -0 -0 -0 -0 -0 -0 -1 -1 -1 -1 -1 -1 -1 -1 -1 -1 -1 -1 -1 -0 -1 -1 -3 -4 -4 -3 -3 -3 -2 -1 1 1 2 2 2 1 1 1 1 0 0 0 -0 -1 -2 -2 -2 -1 -1 -1 -2 -2 -2 -3 -6 -7 -3 -0 -1 -4 -4 -2 -1 -2 -3 -4 -4 -1 0 -0 -3 -6 -7 -7 -6 -5 -4 -5 -6 -6 -4 -3 -2
-0 -0 -0 -0 -0 -0 -0 -1 -1 -1 -1 -1 -1 -0 -1 -1 -1 -0 -0 -0 -0 -1 -1 -1 -1 -2 -3 -3 -2 -3 -4 -4 -3 -1 1 1 1 1 1 1 1 1 0 0 -0 -0 -0 -1 -1 -0 -0 -2 -4 -6 -4 0 1 -2 -5 -4 -2 -2 -5 -5 -3 -1 -0 -2 -4 -4 -3 -2 -2 -3 -5 -5 -5 -5 -5 -4 -4 -4 -3 -3 -2 -1
-0 -0 -0 -0 -1 -1 -1 -1 -1 -1 -1 -1 -1 -0 0 -0 -0 -1 -1 -0 -0 -0 -1 -1 -1 -2 -2 -1 -1 -1 -3 -4 -4 -2 -1 -0 0 0 -0 -0 -0 -0 -0 -0 -1 -1 -1 -1 0 1 1 0 -3 -6 -8 -2 0 1 -2 -2 -2 -3 -5 -6 -4 -2 -1 -3 -3 -3 -1 -0 -2 -3 -5 -5 -5 -5 -4 -3 -3 -3 -2 -1 -1 -1
-0 -0 -0 -0 -1 -1 -1 -1 -1 -1 -1 -1 -1 0 1 1 0 -0 -0 -0 -0 -0 -1 -1 -1 -2 -2 -2 -1 -1 -2 -3 -3 -3 -2 -2 -2 -2 -2 -2 -2 -2 -2 -2 -2 -2 -3 -3 -1 -0 1 1 -2 -5 -8 -5 -2 0 -0 -1 -2 -3 -6 -7 -5 -3 -1 -3 -3 -2 0 1 0 -0 -0 -2 -5 -7 -4 -3 -4 -4 -3 -1 -0 -0
0 -0 -0 -0 -0 -1 -1 -1 -1 -1 -1 -1 -1 -1 0 1 1 1 0 0 -0 -0 -0 -1 -1 -2 -3 -2 -2 -2 -2 -3 -3 -3 -3 -2 -2 -3 -3 -3 -3 -3 -4 -4 -4 -4 -4 -5 -5 -3 1 2 0 -2 -6 -6 -4 -2 -0 -2 -2 -2 -4 -7 -6 -4 -1 -2 -3 -2 -0 0 1 2 5 3 -1 -4 -4 -4 -6 -7 -6 -3 -1 -1
0 0 0 -0 -0 -1 -1 -1 -1 -1 -1 -1 -2 -1 -1 -0 0 1 1 0 -0 -0 -1 -0 -1 -2 -3 -3 -3 -2 -2 -3 -3 -4 -3 -2 -2 -3 -4 -3 -3 -3 -4 -4 -4 -4 -3 -5 -7 -7 -4 4 5 3 -2 -4 -4 -4 -4 -4 -2 0 -1 -4 -5 -4 -1 -0 -0 0 1 1 2 3 5 5 1 -3 -7 -7 -8 -8 -7 -4 -2 -2
Height
1484 1484 1485 1485 1486 1487 1487 1488 1488 1489 1489 1490 1490 1491 1491 1492 1492 1492 1492 1492 1492 1492 1492 1492 1493 1493 1494 1494 1494 1493 1493 1492 1492 1491 1490 1490 1489 1489 1488 1488 1488 1488 1487 1487 1487 1487 1487 1487 1487 1486 1486 1486 1486 1486 1486 1486 1485 1485 1485 1485 1485 1485 1485 1485 1486 1486 1486 1486 1486 1486 1486 1486 1486 1486 1486 1486 1485 1485 1485 1485 1485 1485 1485 1486 1486 1486
1483 1484 1484 1485 1485 1486 1486 1487 1487 1488 1488 1489 1490 1490 1491 1491 1491 1491 1491 1491 1491 1491 1491 1491 1492 1492 1492 1492 1492 1492 1491 1490 1490 1489 1488 1488 1487 1487 1487 1487 1486 1486 1486 1486 1485 1485 1485 1485 1485 1485 1484 1484 1484 1484 1484 1484 1483 1483 1483 1483 1483 1483 1483 1483 1483 1483 1484 1484 1484 1484 1484 1484 1484 1484 1483 1483 1483 1483 1483 1483 1483 1483 1484 1484 1484 1484
1482 1483 1483 1484 1485 1485 1485 1486 1487 1487 1488 1488 1489 1489 1490 1490 1489 1489 1489 1489 1489 1490 1490 1490 1491 1491 1491 1491 1490 1490 1489 1488 1488 1487 1487 1486 1486 1486 1485 1485 1485 1484 1484 1484 1484 1484 1483 1483 1483 1483 1483 1483 1482 1482 1482 1482 1482 1482 1482 1482 1482 1482 1482 1482 1482 1482 1482 1482 1482 1482 1482 1482 1482 1482 1482 1481 1481 1481 1481 1481 1481 1481 1482 1482 1482 1482
1482 1482 1482 1483 1484 1484 1485 1485 1486 1487 1487 1488 1488 1488 1488 1488 1487 1488 1488 1488 1488 1488 1489 1489 1489 1489 1489 1489 1488 1488 1487 1487 1486 1486 1485 1485 1484 1484 1484 1483 1483 1483 1482 1482 1482 1482 1482 1482 1482 1482 1481 1481 1481 1481 1481 1480 1480 1480 1480 1480 1480 1480 1480 1480 1480 1480 1480 1480 1480 1480 1480 1480 1480 1480 1480 1479 1479 1479 1479 1479 1479 1479 1480 1480 1480 1481
1481 1481 1482 1482 1483 1484 1484 1485 1486 1486 1486 1486 1486 1486 1486 1486 1486 1486 1487 1487 1487 1487 1487 1487 1487 1487 1487 1487 1487 1486 1486 1485 1485 1484 1484 1483 1483 1482 1482 1482 1482 1481 1481 1481 1481 1481 1481 1480 1480 1480 1480 1480 1479 1479 1479 1479 1479 1479 1479 1478 1478 1478 1478 1478 1478 1478 1478 1478 1478 1478 1478 1478 1478 1478 1478 1477 1477 1477 1477 1477 1477 1477 1478 1478 1478 1478
1480 1481 1481 1482 1482 1483 1484 1484 1484 1485 1485 1485 1485 1485 1485 1485 1485 1486 1486 1486 1486 1486 1486 1486 1486 1486 1486 1485 1485 1484 1484 1484 1483 1483 1482 1482 1481 1481 1481 1480 1480 1480 1479 1479 1479 1479 1479 1479 1478 1478 1478 1478 1478 1478 1478 1477 1477 1477 1477 1477 1477 1477 1477 1477 1477 1477 1476 1476 1476 1476 1476 1476 1476 1476 1476 1476 1476 1476 1476 1476 1475 1475 1476 1476 1476 1476
1480 1480 1481 1481 1482 1482 1483 1483 1483 1483 1483 1483 1483 1483 1483 1484 1484 1484 1484 1484 1484 1484 1484 1484 1484 1484 1484 1484 1483 1483 1482 1482 1482 1481 1481 1480 1480 1479 1479 1479 1478 1478 1478 1478 1478 1477 1477 1477 1477 1477 1477 1477 1477 1477 1477 1476 1476 1476 1476 1476 1475 1475 1475 1475 1475 1475 1475 1474 1474 1474 1474 1474 1474 1474 1474 1474 1474 1474 1474 1474 1473 1473 1473 1473 1473 1473
1479 1480 1480 1481 1481 1482 1482 1482 1482 1482 1483 1482 1482 1482 1482 1482 1482 1483 1483 1482 1482 1482 1482 1482 1482 1482 1482 1482 1481 1481 1480 1480 1480 1479 1479 1478 1478 1478 1477 1477 1477 1477 1477 1477 1477 1477 1476 1476 1476 1476 1476 1476 1475 1475 1475 1475 1474 1474 1474 1473 1473 1473 1473 1473 1473 1473 1473 1473 1472 1472 1472 1472 1472 1472 1472 1472 1472 1472 1472 1472 1472 1472 1471 1471 1471 1471
1479 1480 1480 1480 1481 1481 1481 1482 1482 1482 1482 1481 1481 1481 1481 1481 1481 1481 1481 1481 1481 1481 1481 1481 1481 1481 1481 1480 1479 1479 1479 1478 1478 1478 1477 1477 1477 1476 1476 1476 1476 1475 1475 1475 1475 1475 1475 1475 1475 1474 1474 1474 1473 1473 1473 1472 1472 1472 1472 1471 1471 1471 1471 1471 1471 1471 1471 1471 1471 1471 1471 1471 1471 1471 1470 1470 1470 1470 1470 1470 1469 1469 1469 1469 1469 1469
1479 1480 1480 1480 1480 1480 1480 1480 1480 1480 1480 1480 1480 1480 1480 1480 1480 1480 1480 1480 1480 1480 1480 1480 1480 1480 1479 1478 1478 1478 1477 1477 1477 1477 1476 1476 1475 1475 1474 1474 1474 1474 1474 1474 1474 1473 1473 1473 1473 1472 1472 1472 1472 1471 1471 1471 1470 1470 1470 1470 1470 1470 1470 1470 1470 1470 1470 1470 1470 1469 1469 1469 1469 1469 1468 1468 1468 1468 1467 1467 1467 1467 1467 1467 1467 1467
1479 1479 1479 1479 1479 1479 1479 1479 1479 1478 1478 1478 1478 1479 1479 1479 1479 1479 1479 1479 1479 1479 1479 1479 1478 1478 1477 1477 1477 1477 1477 1476 1476 1476 1475 1474 1474 1473 1473 1473 1473 1473 1472 1472 1472 1472 1472 1472 1471 1471 1471 1470 1470 1469 1469 1469 1469 1468 1468 1468 1468 1468 1468 1468 1468 1468 1468 1468 1468 1468 1467 1467 1467 1467 1467 1466 1466 1466 1466 1465 1465 1465 1465 1464 1464 1464
1478 1478 1478 1478 1478 1478 1478 1478 1477 1477 1477 1477 1478 1478 1478 1478 1478 1478 1478 1478 1478 1478 1477 1477 1477 1477 1476 1476 1475 1475 1475 1475 1474 1474 1473 1473 1472 1472 1472 1472 1472 1471 1471 1471 1471 1471 1470 1470 1470 1469 1469 1468 1468 1468 1467 1467 1467 1467 1467 1467 1467 1467 1467 1467 1467 1467 1467 1467 1466 1466 1466 1466 1465 1465 1465 1464 1464 1464 1463 1463 1463 1463 1462 1462 1462 1462
1477 1477 1477 1477 1477 1477 1477 1477 1477 1477 1477 1477 1477 1477 1477 1477 1477 1477 1477 1477 1477 1477 1476 1476 1475 1475 1475 1475 1474 1474 1474 1473 1472 1472 1472 1471 1471 1471 1471 1470 1470 1470 1470 1470 1469 1469 1469 1468 1468 1467 1467 1467 1467 1466 1466 1466 1466 1466 1466 1466 1466 1466 1466 1466 1466 1465 1465 1465 1465 1465 1464 1464 1464 1463 1463 1463 1462 1462 1462 1462 1461 1461 1460 1460 1460 1460
1476 1476 1476 1476 1476 1476 1476 1476 1476 1476 1476 1476 1476 1477 1477 1477 1476 1476 1476 1476 1476 1475 1475 1475 1474 1474 1473 1473 1473 1473 1472 1472 1471 1470 1470 1470 1470 1469 1469 1469 1469 1469 1468 1468 1468 1468 1467 1467 1466 1466 1466 1465 1465 1465 1465 1465 1465 1465 1465 1465 1465 1465 1464 1464 1464 1464 1464 1463 1463 1463 1463 1462 1462 1462 1462 1461 1461 1460 1460 1460 1459 1459 1458 1458 1458 1457
1475 1475 1475 1475 1475 1475 1475 1475 1475 1475 1475 1476 1476 1476 1476 1476 1475 1475 1475 1475 1474 1474 1474 1473 1473 1473 1472 1472 1472 1472 1471 1470 1469 1469 1468 1468 1468 1468 1468 1468 1467 1467 1467 1467 1466 1466 1466 1465 1465 1464 1464 1464 1464 1464 1464 1464 1464 1464 1464 1464 1463 1463 1463 1463 1463 1462 1462 1462 1462 1462 1461 1461 1461 1460 1460 1459 1459 1459 1458 1458 1457 1457 1457 1456 1456 1456
1474 1474 1474 1474 1474 1474 1474 1474 1474 1475 1475 1475 1475 1475 1475 1475 1474 1474 1474 1474 1473 1473 1473 1472 1472 1471 1471 1471 1471 1471 1470 1469 1468 1467 1467 1467 1467 1467 1467 1466 1466 1466 1465 1465 1465 1465 1464 1464 1463 1463 1463 1463 1463 1463 1463 1463 1463 1463 1462 1462 1462 1462 1462 1462 1461 1461 1461 1460 1460 1460 1460 1459 1459 1458 1458 1458 1457 1457 1456 1456 1456 1455 1455 1454 1454 1454
1474 1473 1473 1473 1473 1473 1473 1473 1474 1474 1474 1474 1474 1474 1474 1474 1474 1473 1473 1473 1472 1472 1472 1471 1470 1469 1469 1469 1470 1470 1468 1467 1466 1466 1465 1465 1466 1466 1465 1465 1464 1464 1464 1464 1463 1463 1463 1462 1462 1462 1462 1462 1462 1462 1462 1462 1462 1461 1461 1461 1461 1460 1460 1460 1460 1459 1459 1459 1458 1458 1458 1457 1457 1457 1456 1456 1455 1455 1454 1454 1453 1453 1452 1452 1452 1452
1473 1472 1472 1472 1472 1472 1472 1473 1473 1473 1473 1473 1473 1473 1473 1473 1473 1472 1472 1472 1471 1471 1470 1470 1469 1468 1467 1467 1467 1468 1467 1466 1465 1464 1464 1463 1464 1464 1464 1463 1462 1462 1462 1462 1462 1462 1461 1461 1461 1461 1461 1461 1461 1460 1460 1460 1460 1460 1460 1459 1459 1459 1459 1458 1458 1457 1457 1457 1457 1456 1456 1455 1455 1455 1454 1453 1453 1452 1452 1452 1451 1451 1450 1450 1450 1449
1472 1472 1472 1472 1472 1472 1472 1472 1472 1472 1472 1472 1472 1472 1472 1472 1472 1471 1471 1470 1470 1469 1469 1468 1467 1467 1466 1466 1466 1466 1466 1465 1464 1463 1462 1462 1462 1462 1462 1462 1461 1461 1461 1461 1461 1460 1460 1460 1459 1459 1459 1459 1459 1459 1459 1459 1459 1458 1458 1458 1458 1457 1457 1457 1456 1456 1456 1455 1455 1454 1454 1453 1453 1452 1452 1451 1451 1450 1450 1449 1449 1449 1448 1448 1447 1447
1471 1471 1471 1471 1471 1471 1471 1471 1471 1471 1471 1471 1471 1471 1471 1470 1470 1470 1470 1469 1469 1468 1467 1467 1466 1466 1465 1465 1465 1465 1465 1464 1463 1462 1461 1460 1460 1461 1461 1460 1459 1459 1459 1459 1459 1459 1458 1458 1458 1458 1458 1458 1458 1458 1458 1457 1457 1457 1457 1457 1456 1456 1455 1455 1455 1454 1454 1453 1453 1452 1452 1451 1451 1450 1450 1449 1449 1448 1448 1447 1447 1446 1446 1446 1445 1445
1470 1470 1470 1470 1470 1470 1470 1470 1470 1470 1470 1470 1470 1470 1469 1469 1469 1468 1468 1468 1467 1467 1466 1466 1465 1465 1464 1463 1463 1463 1464 1463 1462 1461 1459 1458 1458 1459 1459 1458 1458 1457 1457 1457 1457 1457 1457 1457 1457 1457 1457 1457 1457 1457 1456 1456 1456 1455 1455 1455 1454 1454 1454 1453 1453 1452 1452 1452 1451 1451 1450 1449 1449 1448 1447 1447 1446 1446 1446 1445 1444 1444 1443 1443 1443 1442
1469 1469 1469 1469 1469 1469 1469 1469 1469 1469 1469 1469 1469 1468 1468 1468 1467 1467 1467 1466 1466 1465 1465 1464 1464 1463 1463 1462 1462 1463 1463 1462 1461 1460 1458 1457 1456 1457 1458 1457 1456 1456 1455 1455 1455 1455 1455 1455 1455 1455 1455 1455 1455 1455 1455 1454 1454 1454 1453 1453 1453 1452 1452 1452 1451 1451 1450 1449 1449 1448 1448 1447 1446 1446 1445 1444 1444 1443 1443 1442 1442 1441 1441 1440 1440 1440
1468 1468 1468 1468 1468 1468 1468 1468 1468 1468 1468 1468 1467 1467 1467 1467 1466 1466 1465 1465 1464 1464 1463 1463 1462 1462 1462 1462 1462 1462 1462 1461 1461 1459 1458 1456 1455 1455 1456 1456 1455 1454 1454 1454 1454 1454 1454 1454 1454 1454 1454 1454 1453 1453 1453 1452 1452 1452 1452 1451 1451 1451 1450 1450 1449 1449 1448 1447 1447 1446 1445 1445 1444 1443 1443 1442 1442 1441 1441 1440 1439 1439 1438 1438 1437 1437
1467 1467 1467 1467 1467 1467 1467 1467 1467 1467 1467 1466 1466 1466 1466 1465 1465 1464 1464 1463 1463 1462 1462 1461 1461 1461 1461 1461 1461 1461 1461 1460 1460 1458 1457 1455 1454 1454 1454 1454 1453 1452 1452 1452 1452 1452 1452 1452 1452 1452 1452 1452 1452 1452 1451 1451 1451 1450 1450 1450 1449 1449 1448 1448 1447 1447 1446 1445 1444 1443 1443 1442 1442 1441 1440 1440 1439 1439 1438 1438 1437 1437 1436 1435 1435 1434
1466 1466 1466 1466 1466 1466 1466 1466 1466 1465 1465 1465 1465 1464 1464 1464 1463 1462 1462 1462 1462 1461 1460 1460 1459 1459 1459 1459 1459 1459 1459 1459 1458 1457 1456 1454 1453 1452 1453 1453 1452 1451 1451 1451 1451 1451 1450 1450 1450 1450 1450 1450 1450 1449 1449 1449 1449 1448 1448 1448 1447 1447 1447 1446 1445 1444 1443 1443 1442 1441 1441 1440 1439 1439 1438 1437 1437 1437 1436 1435 1435 1434 1433 1433 1432 1432
1465 1465 1465 1465 1465 1464 1464 1464 1464 1464 1464 1463 1463 1463 1462 1462 1462 1461 1461 1460 1460 1460 1459 1459 1458 1458 1458 1457 1457 1457 1457 1457 1457 1456 1455 1454 1452 1451 1452 1452 1451 1450 1449 1448 1449 1448 1448 1448 1448 1448 1448 1448 1447 1447 1447 1447 1447 1447 1447 1446 1446 1445 1444 1444 1443 1442 1441 1441 1440 1439 1438 1438 1437 1437 1436 1435 1435 1434 1434 1433 1432 1432 1431 1430 1430 1429
1463 1463 1463 1463 1463 1463 1463 1463 1463 1462 1462 1462 1462 1462 1461 1461 1460 1460 1459 1459 1459 1459 1458 1458 1457 1457 1456 1456 1456 1456 1456 1456 1455 1455 1454 1453 1451 1450 1450 1450 1450 1449 1447 1447 1447 1446 1446 1446 1446 1446 1446 1446 1445 1445 1445 1445 1445 1445 1444 1444 1444 1443 1442 1442 1441 1440 1439 1438 1438 1437 1437 1436 1435 1434 1434 1433 1432 1432 1431 1431 1430 1429 1428 1428 1427 1426
1463 1462 1462 1462 1462 1462 1462 1462 1461 1461 1461 1461 1461 1461 1460 1460 1459 1459 1458 1458 1458 1458 1457 1457 1456 1456 1455 1454 1454 1454 1454 1454 1454 1453 1453 1452 1451 1449 1449 1449 1449 1447 1446 1445 1444 1444 1444 1444 1444 1444 1444 1443 1443 1443 1443 1443 1443 1442 1442 1442 1442 1441 1440 1440 1439 1438 1437 1437 1436 1435 1434 1434 1433 1432 1432 1431 1430 1430 1429 1428 1427 1427 1426 1425 1424 1423
1462 1462 1462 1462 1461 1461 1461 1460 1460 1460 1460 1459 1459 1459 1459 1458 1458 1457 1457 1457 1457 1457 1456 1456 1455 1455 1454 1453 1453 1452 1452 1453 1453 1452 1452 1451 1450 1449 1448 1448 1447 1447 1446 1444 1442 1442 1442 1442 1442 1442 1442 1442 1441 1441 1441 1441 1441 1440 1440 1440 1439 1439 1438 1437 1437 1436 1435 1435 1434 1433 1432 1432 1431 1430 1429 1429 1428 1427 1427 1426 1425 1424 1423 1422 1422 1421
1461 1461 1461 1461 1460 1460 1459 1459 1459 1458 1458 1458 1458 1458 1457 1457 1457 1456 1456 1456 1456 1456 1455 1455 1454 1454 1453 1452 1452 1451 1451 1452 1452 1451 1451 1450 1449 1448 1447 1447 1447 1446 1445 1443 1441 1439 1438 1439 1440 1440 1440 1440 1439 1439 1439 1439 1439 1438 1438 1437 1437 1437 1436 1435 1435 1434 1433 1433 1432 1431 1430 1430 1429 1428 1427 1427 1426 1425 1425 1424 1423 1422 1421 1420 1419 1418
1460 1460 1459 1459 1459 1458 1458 1457 1457 1457 1457 1457 1457 1456 1456 1456 1456 1456 1455 1455 1455 1455 1454 1453 1453 1453 1452 1452 1451 1450 1449 1451 1451 1451 1450 1449 1447 1447 1446 1445 1445 1445 1444 1443 1442 1439 1437 1436 1437 1438 1438 1438 1437 1437 1437 1437 1436 1436 1435 1435 1434 1434 1433 1433 1432 1432 1431 1431 1430 1429 1428 1427 1427 1426 1425 1424 1424 1423 1422 1422 1421 1420 1418 1417 1417 1416
1458 1458 1458 1457 1457 1457 1457 1456 1456 1456 1456 1456 1455 1455 1455 1455 1455 1455 1454 1454 1454 1453 1453 1452 1452 1452 1451 1451 1450 1449 1448 1449 1450 1449 1448 1447 1446 1445 1445 1444 1443 1443 1443 1442 1442 1441 1438 1435 1434 1435 1436 1436 1435 1435 1435 1435 1434 1434 1433 1432 1432 1432 1431 1431 1430 1429 1429 1428 1427 1427 1426 1425 1425 1424 1423 1422 1422 1421 1420 1420 1419 1418 1417 1415 1414 1413
1457 1457 1457 1456 1456 1456 1455 1455 1455 1455 1455 1454 1454 1454 1454 1454 1454 1454 1453 1453 1453 1452 1452 1451 1451 1450 1450 1449 1449 1448 1448 1448 1448 1448 1447 1446 1445 1444 1443 1443 1442 1442 1441 1441 1441 1440 1439 1436 1433 1432 1432 1433 1433 1433 1432 1432 1432 1432 1431 1431 1430 1429 1429 1429 1428 1427 1427 1426 1425 1425 1424 1423 1422 1422 1421 1420 1420 1419 1418 1417 1417 1416 1415 1413 1412 1411
1456 1456 1455 1455 1455 1454 1454 1454 1454 1454 1453 1453 1453 1453 1453 1453 1452 1452 1452 1452 1452 1451 1451 1450 1450 1449 1448 1448 1447 1447 1447 1447 1447 1447 1446 1445 1444 1443 1442 1442 1441 1440 1440 1439 1438 1438 1437 1435 1433 1432 1430 1430 1430 1431 1431 1431 1430 1430 1430 1429 1428 1427 1427 1427 1426 1425 1425 1424 1423 1422 1422 1421 1420 1420 1419 1418 1417 1417 1416 1415 1415 1414 1413 1412 1411 1409
1454 1454 1454 1454 1453 1453 1453 1453 1452 1452 1452 1452 1452 1452 1452 1452 1451 1451 1451 1451 1450 1450 1449 1449 1448 1448 1447 1447 1446 1445 1445 1446 1446 1446 1445 1444 1443 1442 1441 1440 1440 1439 1438 1437 1437 1436 1434 1433 1432 1431 1429 1427 1427 1428 1429 1429 1428 1428 1428 1427 1427 1426 1425 1425 1424 1423 1422 1422 1421 1420 1419 1418 1418 1417 1417 1416 1415 1414 1414 1413 1412 1412 1411 1410 1409 1408
1453 1453 1453 1453 1452 1452 1452 1452 1451 1451 1451 1451 1451 1451 1450 1450 1450 1450 1449 1449 1449 1449 1448 1448 1447 1447 1446 1446 1445 1444 1444 1444 1445 1445 1444 1443 1442 1441 1440 1439 1438 1438 1437 1436 1435 1434 1433 1431 1430 1429 1428 1427 1425 1425 1426 1426 1426 1426 1426 1425 1425 1424 1423 1423 1422 1421 1420 1419 1418 1417 1417 1416 1415 1415 1414 1413 1413 1412 1411 1411 1410 1409 1409 1408 1407 1406
1452 1452 1452 1452 1451 1451 1451 1450 1450 1450 1450 1450 1450 1449 1449 1449 1449 1448 1448 1448 1448 1447 1447 1447 1446 1446 1445 1444 1444 1443 1443 1443 1443 1443 1442 1442 1441 1440 1438 1437 1437 1437 1436 1435 1434 1433 1432 1430 1429 1427 1427 1426 1424 1423 1422 1423 1423 1423 1423 1423 1422 1422 1421 1420 1420 1418 1417 1417 1416 1415 1414 1414 1413 1412 1412 1411 1410 1410 1409 1408 1408 1407 1406 1406 1405 1404
1451 1451 1451 1450 1450 1450 1449 1449 1449 1449 1448 1448 1448 1448 1448 1448 1447 1447 1447 1447 1447 1446 1446 1445 1445 1444 1444 1443 1443 1442 1442 1442 1442 1442 1441 1440 1439 1438 1437 1436 1435 1435 1435 1434 1433 1432 1431 1429 1428 1426 1424 1423 1423 1422 1421 1421 1420 1420 1419 1420 1419 1419 1418 1418 1417 1416 1415 1414 1413 1413 1412 1412 1411 1410 1409 1408 1407 1407 1406 1405 1405 1404 1403 1403 1402 1401
1450 1449 1449 1449 1449 1448 1448 1448 1448 1448 1447 1447 1447 1447 1447 1447 1447 1446 1446 1446 1446 1445 1445 1444 1444 1443 1443 1442 1442 1442 1442 1441 1441 1440 1440 1439 1437 1437 1436 1434 1434 1433 1433 1432 1432 1431 1430 1429 1427 1426 1424 1422 1421 1420 1420 1419 1418 1417 1417 1416 1416 1416 1416 1415 1414 1413 1412 1412 1411 1410 1410 1409 1408 1407 1407 1406 1405 1404 1403 1402 1402 1401 1400 1399 1398 1397
1448 1448 1448 1448 1447 1447 1447 1447 1447 1447 1447 1446 1446 1446 1446 1446 1445 1445 1445 1445 1444 1444 1443 1443 1442 1442 1441 1441 1441 1440 1440 1440 1439 1438 1438 1437 1436 1435 1434 1433 1432 1432 1431 1431 1430 1429 1428 1427 1426 1425 1423 1422 1420 1418 1417 1417 1417 1416 1415 1414 1412 1412 1413 1412 1412 1411 1410 1409 1409 1408 1407 1407 1406 1405 1404 1403 1402 1401 1400 1399 1399 1398 1397 1397 1396 1394
1447 1447 1447 1447 1447 1447 1446 1446 1446 1446 1446 1445 1445 1445 1445 1445 1444 1444 1444 1443 1443 1442 1442 1441 1440 1440 1439 1439 1439 1438 1438 1438 1437 1437 1436 1435 1434 1433 1432 1432 1431 1430 1430 1429 1428 1427 1427 1426 1425 1423 1422 1421 1419 1418 1416 1416 1415 1415 1414 1413 1411 1410 1409 1409 1409 1408 1408 1407 1407 1406 1405 1404 1403 1402 1402 1401 1400 1399 1398 1397 1396 1396 1395 1394 1393 1392
1447 1446 1446 1446 1446 1446 1446 1445 1445 1445 1445 1445 1444 1444 1444 1443 1443 1442 1442 1442 1441 1440 1440 1439 1438 1437 1437 1437 1437 1437 1437 1436 1436 1435 1434 1433 1432 1432 1431 1430 1429 1429 1428 1427 1427 1426 1425 1425 1423 1422 1421 1420 1419 1417 1415 1413 1413 1413 1413 1412 1410 1408 1407 1406 1407 1407 1406 1405 1404 1404 1403 1402 1401 1400 1399 1398 1397 1396 1396 1395 1394 1393 1392 1391 1390 1390
1446 1445 1445 1445 1445 1445 1445 1444 1444 1444 1444 1443 1443 1443 1442 1442 1442 1441 1440 1440 1439 1438 1438 1437 1437 1436 1435 1435 1435 1435 1435 1434 1434 1433 1433 1432 1431 1431 1430 1429 1428 1428 1427 1426 1425 1424 1423 1423 1422 1421 1420 1419 1418 1416 1414 1412 1411 1411 1411 1410 1409 1407 1405 1403 1403 1404 1404 1403 1402 1401 1401 1400 1399 1397 1396 1395 1394 1393 1393 1392 1391 1390 1389 1388 1387 1387
1445 1445 1444 1444 1444 1444 1444 1443 1443 1443 1443 1442 1442 1442 1441 1441 1440 1440 1439 1438 1437 1437 1436 1436 1435 1434 1434 1433 1433 1433 1433 1433 1432 1432 1431 1431 1430 1429 1429 1428 1427 1427 1426 1425 1424 1423 1422 1421 1420 1419 1419 1418 1417 1415 1413 1411 1409 1409 1408 1408 1408 1407 1405 1402 1402 1401 1401 1400 1400 1399 1398 1398 1397 1395 1393 1392 1391 1390 1390 1389 1388 1387 1387 1386 1385 1384
1444 1444 1443 1443 1443 1443 1443 1442 1442 1442 1442 1442 1441 1441 1440 1440 1439 1438 1437 1437 1436 1435 1435 1434 1433 1432 1432 1432 1431 1431 1431 1431 1431 1430 1430 1429 1429 1428 1427 1427 1426 1425 1425 1424 1423 1422 1421 1420 1418 1417 1417 1416 1415 1413 1412 1410 1408 1407 1406 1406 1405 1404 1403 1401 1401 1400 1399 1398 1397 1397 1396 1396 1394 1392 1391 1389 1388 1387 1387 1386 1385 1384 1383 1383 1382 1382
1443 1443 1443 1442 1442 1442 1442 1442 1441 1441 1441 1440 1440 1439 1439 1438 1437 1437 1436 1435 1434 1434 1433 1433 1432 1432 1431 1430 1430 1429 1429 1429 1428 1428 1428 1428 1427 1427 1426 1426 1425 1424 1423 1422 1422 1421 1420 1419 1417 1416 1415 1414 1412 1411 1409 1408 1407 1406 1404 1403 1403 1402 1400 1399 1399 1398 1397 1396 1395 1394 1393 1393 1392 1390 1388 1386 1385 1384 1383 1383 1382 1382 1381 1381 1380 1379
1442 1442 1442 1442 1442 1441 1441 1441 1440 1440 1440 1439 1438 1438 1437 1437 1436 1435 1435 1434 1433 1433 1432 1432 1431 1430 1430 1429 1428 1428 1427 1427 1427 1427 1426 1426 1425 1425 1424 1424 1423 1422 1422 1421 1420 1419 1418 1417 1416 1415 1414 1412 1410 1408 1407 1406 1406 1404 1403 1402 1401 1400 1398 1397 1396 1396 1395 1394 1393 1392 1391 1391 1389 1388 1386 1384 1383 1382 1381 1381 1380 1380 1379 1379 1378 1377
1442 1442 1441 1441 1441 1440 1440 1440 1439 1439 1438 1438 1437 1437 1436 1436 1435 1434 1433 1433 1432 1432 1431 1431 1430 1429 1429 1428 1428 1427 1427 1426 1425 1425 1424 1424 1423 1423 1422 1422 1421 1420 1419 1419 1417 1417 1416 1414 1414 1413 1412 1411 1409 1406 1404 1404 1403 1402 1401 1400 1399 1397 1396 1394 1394 1393 1393 1392 1391 1390 1389 1389 1387 1386 1384 1382 1381 1380 1379 1378 1378 1378 1377 1377 1376 1375
1441 1441 1440 1440 1440 1439 1439 1438 1438 1437 1437 1437 1436 1436 1435 1435 1434 1433 1432 1432 1432 1431 1430 1430 1429 1428 1427 1427 1427 1426 1425 1425 1424 1423 1423 1422 1422 1421 1420 1420 1419 1418 1417 1416 1415 1414 1413 1412 1411 1410 1409 1408 1407 1405 1402 1401 1401 1400 1399 1398 1397 1396 1394 1392 1392 1391 1391 1390 1388 1388 1387 1387 1386 1385 1383 1381 1379 1377 1376 1376 1376 1375 1375 1374 1374 1373
1440 1440 1439 1439 1439 1438 1438 1437 1437 1437 1436 1435 1435 1434 1434 1433 1433 1432 1432 1431 1431 1430 1429 1428 1428 1427 1426 1425 1425 1425 1424 1423 1422 1422 1421 1421 1420 1420 1419 1418 1417 1416 1415 1414 1413 1412 1410 1409 1407 1407 1407 1406 1405 1404 1402 1400 1399 1398 1397 1396 1395 1394 1393 1391 1390 1389 1389 1388 1387 1386 1386 1385 1384 1383 1382 1380 1378 1376 1374 1373 1372 1372 1372 1372 1371 1370
1439 1439 1439 1438 1438 1437 1437 1437 1436 1435 1435 1434 1434 1433 1433 1432 1432 1431 1431 1430 1429 1429 1428 1427 1427 1426 1425 1424 1424 1423 1422 1422 1421 1420 1420 1419 1419 1418 1417 1417 1416 1415 1414 1412 1411 1410 1409 1407 1406 1404 1403 1404 1404 1403 1401 1399 1398 1397 1396 1394 1393 1393 1392 1390 1388 1387 1387 1386 1385 1384 1384 1383 1382 1381 1381 1379 1377 1374 1372 1370 1369 1368 1368 1368 1368 1367